Regional Weather Roundup
Issued by NWS Charleston, WV

Home | Current Version | Previous Version | Graphics & Text | Print | Product List | Glossary On
Versions: 1 2 3 4 5 6 7 8 9 10 11 12 13 14 15 16 17 18 19 20 21 22 23 24 25 26 27 28 29 30 31 32 33 34 35 36 37 38 39 40 41 42 43 44 45 46
000
ASUS41 KRLX 190010
RWRRLX
West Virginia Regional Weather Roundup
National Weather Service Charleston WV
700 PM EST WED JAN 18 2017

Note: "fair" indicates few or no clouds below 12,000 feet with no
significant weather and/or obstructions to visibility.

WVZ003-190100-
Northern Panhandle of West Virginia

CITY           SKY/WX    TMP DP  RH WIND       PRES   REMARKS
WHEELING       CLOUDY    38  33  82 W10       30.11S
$$

WVZ009-190100-
Northwest West Virginia

CITY           SKY/WX    TMP DP  RH WIND       PRES   REMARKS
PARKERSBURG    CLOUDY    41  34  76 W5        30.17R
$$

WVZ006-190100-
Western West Virginia

CITY           SKY/WX    TMP DP  RH WIND       PRES   REMARKS
HUNTINGTON     CLOUDY    44  35  70 W3        30.14S
$$

WVZ015-190100-
West Central West Virginia

CITY           SKY/WX    TMP DP  RH WIND       PRES   REMARKS
CHARLESTON     CLOUDY    43  37  79 NW5       30.15R
$$

WVZ022-031-190100-
North Central West Virginia

CITY           SKY/WX    TMP DP  RH WIND       PRES   REMARKS
CLARKSBURG     CLOUDY    40  34  79 SW6       30.13R
MORGANTOWN     CLOUDY    41  33  73 SW3       30.12S
$$

WVZ025-035-042-045-190100-
Southern West Virginia

CITY           SKY/WX    TMP DP  RH WIND       PRES   REMARKS
BECKLEY        CLOUDY    39  35  86 W6        30.11R
LOGAN          CLOUDY    41  39  93 CALM      30.13R
BLUEFIELD      CLOUDY    38  33  82 NW6       30.11R
LEWISBURG      CLOUDY    38  34  85 CALM      30.09S
$$

WVZ047-190100-
Northern Mountains of West Virginia

CITY           SKY/WX    TMP DP  RH WIND       PRES   REMARKS
ELKINS         CLOUDY    38  34  85 W3        30.12R
$$

WVZ052-190100-
Eastern Panhandle of West Virginia

CITY           SKY/WX    TMP DP  RH WIND       PRES   REMARKS
MARTINSBURG    CLOUDY    45  34  65 NW6       30.07R
PETERSBURG     MOCLDY    46  36  68 CALM      30.09R
$$




USA.gov is the U.S. government's official web portal to all federal, state and local government web resources and services.